GW3504 Weather Reports


time (UTC)temp
F
wind
direction
speed
knots
gust
knots
rain 1hr
in
rain 24hr
in
rain mn
in
humidity
%
barometer
mb
20260831142526 82 269 1.7 7.8 0.00 0.00 0.00 61 1015.8
20260831142028 82 306 0.0 7.8 0.00 0.00 0.00 62 1015.9
20260831141549 81 42 1.7 11.3 0.00 0.00 0.00 63 1015.9
20260831141025 80 190 0.9 11.3 0.00 0.00 0.00 64 1015.9
20260831140527 79 178 2.6 10.4 0.00 0.00 0.00 65 1015.9
20260831140048 79 159 3.5 7.8 0.00 0.00 0.00 66 1015.9
20260831135525 78 159 2.6 7.8 0.00 0.00 0.00 67 1015.8
20260831135024 78 184 1.7 7.0 0.00 0.00 0.00 67 1016.0
20260831134546 78 131 2.6 7.0 0.00 0.00 0.00 66 1015.9
20260831134031 78 217 0.9 7.8 0.00 0.00 0.00 66 1015.8
20260831133528 78 298 2.6 7.8 0.00 0.00 0.00 66 1015.7
20260831133055 78 0 1.7 7.8 0.00 0.00 0.00 67 1015.7
20260831132525 77 161 0.9 7.0 0.00 0.00 0.00 68 1015.7
20260831132030 77 170 2.6 7.0 0.00 0.00 0.00 67 1015.8
20260831131553 77 171 1.7 7.8 0.00 0.00 0.00 67 1015.9
20260831131027 77 0 1.7 7.8 0.00 0.00 0.00 67 1015.9
20260831130524 77 0 0.9 6.1 0.00 0.00 0.00 67 1015.8
20260831130052 77 129 1.7 6.1 0.00 0.00 0.00 67 1015.8
20260831125523 77 0 0.9 6.1 0.00 0.00 0.00 67 1015.7
20260831125028 77 138 0.9 9.6 0.00 0.00 0.00 67 1015.7
20260831124549 77 161 1.7 9.6 0.00 0.00 0.00 67 1015.5
20260831124024 76 188 2.6 8.7 0.00 0.00 0.00 67 1015.4
20260831123525 76 182 1.7 5.2 0.00 0.00 0.00 68 1015.4
20260831123050 76 0 1.7 5.2 0.00 0.00 0.00 68 1015.5
20260831122527 76 192 0.0 4.3 0.00 0.00 0.00 68 1015.4
20260831122025 76 0 0.9 6.1 0.00 0.00 0.00 68 1015.3
20260831121545 75 0 0.9 6.1 0.00 0.00 0.00 68 1015.2
20260831121024 75 0 0.9 6.1 0.00 0.00 0.00 68 1015.2
20260831120525 75 0 0.9 6.1 0.00 0.00 0.00 68 1015.1
20260831120053 75 157 0.0 5.2 0.00 0.00 0.00 68 1014.9
20260831115531 75 0 0.9 5.2 0.00 0.00 0.00 68 1014.9
20260831115027 75 0 0.0 6.1 0.00 0.00 0.00 67 1014.7
20260831114544 75 196 2.6 6.1 0.00 0.00 0.00 67 1014.5
20260831114025 76 167 2.6 6.1 0.00 0.00 0.00 67 1014.5
20260831113525 76 143 2.6 7.0 0.00 0.00 0.00 66 1014.4
20260831113050 76 182 1.7 7.8 0.00 0.00 0.00 65 1014.4
20260831112524 76 187 3.5 7.8 0.00 0.00 0.00 65 1014.4
20260831112024 76 0 1.7 6.1 0.00 0.00 0.00 65 1014.4
20260831111554 77 196 1.7 7.8 0.00 0.00 0.00 65 1014.5
20260831111023 76 209 1.7 7.8 0.00 0.00 0.00 65 1014.5
20260831110524 76 178 2.6 7.8 0.00 0.00 0.00 65 1014.5
20260831110049 76 169 2.6 7.8 0.00 0.00 0.00 65 1014.5
20260831105526 76 169 1.7 7.8 0.00 0.00 0.00 65 1014.4
20260831105026 76 0 0.9 4.3 0.00 0.00 0.00 65 1014.4
20260831104544 76 0 0.0 2.6 0.00 0.00 0.00 65 1014.3
20260831104026 77 174 0.0 2.6 0.00 0.00 0.00 64 1014.2
20260831103525 77 177 0.0 1.7 0.00 0.00 0.00 64 1014.2
20260831103041 77 0 0.0 5.2 0.00 0.00 0.00 63 1014.2
20260831102526 77 0 0.0 5.2 0.00 0.00 0.00 63 1014.1
20260831102028 77 183 1.7 6.1 0.00 0.00 0.00 62 1013.9
20260831101556 78 156 1.7 7.8 0.00 0.00 0.00 62 1013.8
20260831101022 78 0 2.6 8.7 0.00 0.00 0.00 62 1013.7
20260831100524 78 148 2.6 8.7 0.00 0.00 0.00 61 1013.6
20260831100047 78 151 2.6 7.8 0.00 0.00 0.00 61 1013.6
20260831095526 78 179 1.7 7.8 0.00 0.00 0.00 61 1013.6
20260831095023 79 186 2.6 12.2 0.00 0.00 0.00 60 1013.5
20260831094544 79 176 2.6 12.2 0.00 0.00 0.00 60 1013.5
20260831094025 79 169 3.5 9.6 0.00 0.00 0.00 59 1013.4
20260831093523 79 163 1.7 10.4 0.00 0.00 0.00 59 1013.3
20260831093050 79 178 5.2 10.4 0.00 0.00 0.00 58 1013.2
20260831092525 79 0 3.5 9.6 0.00 0.00 0.00 58 1013.2
20260831092025 79 180 3.5 8.7 0.00 0.00 0.00 58 1013.3
20260831091559 80 188 2.6 8.7 0.00 0.00 0.00 58 1013.4
20260831091028 80 173 2.6 7.0 0.00 0.00 0.00 57 1013.3
20260831090524 80 154 2.6 12.2 0.00 0.00 0.00 57 1013.3
20260831090051 80 190 3.5 12.2 0.00 0.00 0.00 57 1013.3
20260831085523 80 181 2.6 8.7 0.00 0.00 0.00 56 1013.1
20260831085024 80 196 0.9 7.8 0.00 0.00 0.00 56 1013.2
20260831084547 81 154 1.7 7.8 0.00 0.00 0.00 56 1013.1
20260831084026 81 0 1.7 9.6 0.00 0.00 0.00 55 1013.1
20260831083523 81 167 2.6 9.6 0.00 0.00 0.00 55 1013.1
20260831083057 81 192 3.5 9.6 0.00 0.00 0.00 55 1013.1
20260831082524 81 191 4.3 9.6 0.00 0.00 0.00 55 1013.1
20260831082024 81 190 2.6 10.4 0.00 0.00 0.00 55 1013.2
20260831081558 81 173 2.6 10.4 0.00 0.00 0.00 54 1013.1
20260831081023 82 180 2.6 7.8 0.00 0.00 0.00 54 1013.1
20260831080525 82 164 2.6 7.8 0.00 0.00 0.00 54 1013.1
20260831080112 82 156 1.7 6.1 0.00 0.00 0.00 54 1013.0
20260831075526 82 0 1.7 5.2 0.00 0.00 0.00 53 1013.0
20260831075023 83 170 0.9 6.1 0.00 0.00 0.00 52 1013.1
20260831074545 83 153 0.9 6.1 0.00 0.00 0.00 52 1013.2
20260831074027 83 220 0.9 6.1 0.00 0.00 0.00 51 1013.0
20260831073527 83 0 0.9 6.1 0.00 0.00 0.00 51 1012.9
20260831073111 83 167 1.7 7.0 0.00 0.00 0.00 51 1012.8
20260831072526 83 183 0.9 7.8 0.00 0.00 0.00 51 1012.9
20260831072029 83 0 1.7 7.8 0.00 0.00 0.00 51 1012.8
20260831071553 83 186 0.0 5.2 0.00 0.00 0.00 51 1012.9
20260831071027 83 244 0.0 3.5 0.00 0.00 0.00 51 1013.0
20260831070529 84 0 0.0 5.2 0.00 0.00 0.00 50 1013.0
20260831070048 84 0 1.7 7.0 0.00 0.00 0.00 50 1013.1
20260831065524 84 205 1.7 7.0 0.00 0.00 0.00 50 1013.0
20260831065029 84 0 0.0 5.2 0.00 0.00 0.00 50 1013.0
20260831064547 84 173 0.0 7.0 0.00 0.00 0.00 51 1013.1
20260831064028 84 0 1.7 7.0 0.00 0.00 0.00 51 1013.0
20260831063524 84 0 0.9 5.2 0.00 0.00 0.00 51 1012.9
20260831063050 84 175 1.7 7.0 0.00 0.00 0.00 51 1012.8
20260831062523 84 175 1.7 8.7 0.00 0.00 0.00 51 1012.7
20260831062030 84 207 2.6 8.7 0.00 0.00 0.00 50 1012.7
20260831061549 84 180 3.5 7.8 0.00 0.00 0.00 51 1012.7
20260831061029 84 0 1.7 7.8 0.00 0.00 0.00 51 1012.7
20260831060525 84 165 1.7 8.7 0.00 0.00 0.00 51 1012.7
20260831060055 84 164 2.6 8.7 0.00 0.00 0.00 51 1012.5
20260831055523 84 174 2.6 8.7 0.00 0.00 0.00 51 1012.6
20260831055023 84 171 1.7 9.6 0.00 0.00 0.00 51 1012.5
20260831054552 84 169 3.5 11.3 0.00 0.00 0.00 51 1012.5
20260831054032 84 207 3.5 11.3 0.00 0.00 0.00 51 1012.4
20260831053523 85 169 4.3 11.3 0.00 0.00 0.00 51 1012.4
20260831053047 85 177 4.3 10.4 0.00 0.00 0.00 51 1012.4
20260831052522 85 192 2.6 11.3 0.00 0.00 0.00 51 1012.3
20260831052025 85 144 2.6 13.0 0.00 0.00 0.00 51 1012.2
20260831051551 85 162 5.2 13.0 0.00 0.00 0.00 50 1012.2
20260831051027 85 132 2.6 13.0 0.00 0.00 0.00 51 1012.1
20260831050527 85 165 3.5 12.2 0.00 0.00 0.00 50 1012.2
20260831050055 85 147 3.5 16.5 0.00 0.00 0.00 50 1012.2
20260831045524 85 198 5.2 16.5 0.00 0.00 0.00 50 1012.2
20260831045025 85 206 4.3 12.2 0.00 0.00 0.00 50 1012.2
20260831044556 85 155 2.6 12.2 0.00 0.00 0.00 50 1012.1
20260831044025 85 179 2.6 8.7 0.00 0.00 0.00 50 1012.2
20260831043523 86 171 3.5 8.7 0.00 0.00 0.00 50 1012.1
20260831043043 86 152 2.6 12.2 0.00 0.00 0.00 50 1012.2
20260831042524 86 119 3.5 12.2 0.00 0.00 0.00 50 1012.2
20260831042025 86 160 1.7 9.6 0.00 0.00 0.00 50 1012.1
20260831041559 86 209 2.6 12.2 0.00 0.00 0.00 50 1012.0
20260831041029 86 174 2.6 12.2 0.00 0.00 0.00 49 1012.0
20260831040527 86 227 2.6 12.2 0.00 0.00 0.00 49 1012.0
20260831040043 86 169 3.5 11.3 0.00 0.00 0.00 49 1012.1
20260831035522 87 207 1.7 11.3 0.00 0.00 0.00 49 1012.0
20260831035023 87 162 2.6 11.3 0.00 0.00 0.00 48 1012.0
20260831034553 87 161 2.6 12.2 0.00 0.00 0.00 48 1011.9
20260831034026 87 157 3.5 12.2 0.00 0.00 0.00 48 1011.9
20260831033523 87 149 2.6 8.7 0.00 0.00 0.00 48 1011.9
20260831033048 87 180 2.6 8.7 0.00 0.00 0.00 47 1011.9
20260831032525 87 206 2.6 8.7 0.00 0.00 0.00 47 1011.9
20260831032024 87 94 3.5 8.7 0.00 0.00 0.00 47 1011.8
20260831031551 88 155 3.5 12.2 0.00 0.00 0.00 46 1011.8
20260831031026 88 168 4.3 12.2 0.00 0.00 0.00 46 1011.8
20260831030522 88 144 5.2 12.2 0.00 0.00 0.00 46 1011.7
20260831030053 88 171 3.5 11.3 0.00 0.00 0.00 45 1011.8
20260831025525 88 164 4.3 11.3 0.00 0.00 0.00 45 1011.8
20260831025031 89 175 3.5 11.3 0.00 0.00 0.00 45 1011.8
20260831024547 89 167 2.6 13.9 0.00 0.00 0.00 45 1011.8
20260831024024 89 163 1.7 13.9 0.00 0.00 0.00 44 1011.8
20260831023525 89 217 2.6 9.6 0.00 0.00 0.00 44 1011.8
20260831023044 89 155 2.6 11.3 0.00 0.00 0.00 44 1011.7
20260831022528 89 196 3.5 11.3 0.00 0.00 0.00 44 1011.7
20260831022025 90 154 4.3 13.9 0.00 0.00 0.00 43 1011.7
20260831021552 90 190 4.3 13.9 0.00 0.00 0.00 44 1011.6
20260831021024 90 191 3.5 10.4 0.00 0.00 0.00 44 1011.4
20260831020525 90 166 3.5 12.2 0.00 0.00 0.00 44 1011.5
20260831020051 90 169 3.5 12.2 0.00 0.00 0.00 44 1011.4
20260831015523 90 175 4.3 12.2 0.00 0.00 0.00 43 1011.4
20260831015027 90 187 2.6 12.2 0.00 0.00 0.00 44 1011.4
20260831014549 90 167 3.5 12.2 0.00 0.00 0.00 44 1011.2
20260831014024 90 141 6.1 12.2 0.00 0.00 0.00 44 1011.2
20260831013525 90 149 3.5 12.2 0.00 0.00 0.00 44 1011.2
20260831013054 91 157 4.3 12.2 0.00 0.00 0.00 44 1011.1
20260831012525 91 182 1.7 9.6 0.00 0.00 0.00 44 1011.1
20260831012024 91 164 2.6 9.6 0.00 0.00 0.00 43 1011.0
20260831011548 92 180 1.7 7.8 0.00 0.00 0.00 43 1011.0
20260831011026 92 149 3.5 8.7 0.00 0.00 0.00 42 1011.0
20260831010526 92 158 2.6 8.7 0.00 0.00 0.00 42 1011.0
20260831010107 92 165 2.6 8.7 0.00 0.00 0.00 42 1010.9
20260831005523 93 181 3.5 8.7 0.00 0.00 0.00 42 1010.8
20260831005027 93 158 3.5 8.7 0.00 0.00 0.00 41 1010.8
20260831004552 93 179 2.6 8.7 0.00 0.00 0.00 41 1010.9
20260831004024 94 201 1.7 9.6 0.00 0.00 0.00 41 1010.9
20260831003524 94 0 3.5 9.6 0.00 0.00 0.00 40 1010.9
20260831003103 94 186 2.6 10.4 0.00 0.00 0.00 40 1010.9
20260831002524 95 0 1.7 12.2 0.00 0.00 0.00 40 1010.9
20260831002025 95 175 3.5 12.2 0.00 0.00 0.00 40 1010.8
20260831001547 95 175 2.6 9.6 0.00 0.00 0.00 40 1010.8
20260831001024 96 169 2.6 10.4 0.00 0.00 0.00 39 1010.7
20260831000523 96 175 2.6 10.4 0.00 0.00 0.00 40 1010.9
20260831000049 96 170 2.6 9.6 0.00 0.00 0.00 39 1010.8
20260830235528 96 171 1.7 10.4 0.00 0.00 0.00 39 1010.8
20260830235027 97 178 0.9 11.3 0.00 0.00 0.00 39 1010.6
20260830234546 97 138 5.2 11.3 0.00 0.00 0.00 38 1010.6
20260830234025 97 209 2.6 9.6 0.00 0.00 0.00 38 1010.6
20260830233529 98 173 3.5 9.6 0.00 0.00 0.00 38 1010.6
20260830233050 98 186 1.7 7.8 0.00 0.00 0.00 38 1010.5
20260830232525 98 160 2.6 13.0 0.00 0.00 0.00 37 1010.5
20260830232025 98 0 3.5 16.5 0.00 0.00 0.00 36 1010.5
20260830231549 98 171 5.2 17.4 0.00 0.00 0.00 35 1010.4
20260830231023 98 160 4.3 17.4 0.00 0.00 0.00 35 1010.6
20260830230527 99 143 5.2 13.0 0.00 0.00 0.00 34 1010.4
20260830230045 99 182 2.6 15.6 0.00 0.00 0.00 35 1010.3
20260830225524 99 333 4.3 17.4 0.00 0.00 0.00 35 1010.3
20260830225022 99 184 6.1 17.4 0.00 0.00 0.00 35 1010.3
20260830224548 99 161 6.1 13.9 0.00 0.00 0.00 34 1010.3
20260830224025 99 128 5.2 16.5 0.00 0.00 0.00 35 1010.2
20260830223523 99 227 6.1 19.1 0.00 0.00 0.00 35 1010.3
20260830223045 99 173 6.1 19.1 0.00 0.00 0.00 35 1010.3
20260830222524 99 126 2.6 14.8 0.00 0.00 0.00 36 1010.4
20260830222024 99 198 5.2 14.8 0.00 0.00 0.00 35 1010.3
20260830221545 99 130 3.5 16.5 0.00 0.00 0.00 36 1010.3
20260830221024 99 155 3.5 16.5 0.00 0.00 0.00 36 1010.3
20260830220526 99 152 5.2 16.5 0.00 0.00 0.00 36 1010.4
20260830220051 100 183 5.2 12.2 0.00 0.00 0.00 36 1010.4
20260830215527 100 236 3.5 14.8 0.00 0.00 0.00 36 1010.4
20260830215027 100 125 3.5 15.6 0.00 0.00 0.00 36 1010.4
20260830214544 100 169 7.0 15.6 0.00 0.00 0.00 36 1010.4
20260830214026 100 181 5.2 14.8 0.00 0.00 0.00 35 1010.4
20260830213530 100 148 7.0 13.0 0.00 0.00 0.00 35 1010.6
20260830213049 100 158 4.3 12.2 0.00 0.00 0.00 37 1010.6
20260830212524 100 174 2.6 16.5 0.00 0.00 0.00 37 1010.6
20260830212027 100 202 3.5 17.4 0.00 0.00 0.00 38 1010.6
20260830211548 99 126 7.8 17.4 0.00 0.00 0.00 38 1010.8
20260830211026 100 213 4.3 16.5 0.00 0.00 0.00 37 1010.8
20260830210524 100 149 3.5 16.5 0.00 0.00 0.00 36 1010.8
20260830210046 100 128 5.2 13.9 0.00 0.00 0.00 37 1010.8
20260830205527 100 185 4.3 13.9 0.00 0.00 0.00 38 1011.0
20260830205023 100 161 3.5 16.5 0.00 0.00 0.00 38 1011.0
20260830204544 100 209 3.5 16.5 0.00 0.00 0.00 38 1011.0
20260830204025 100 201 5.2 13.9 0.00 0.00 0.00 38 1011.0
20260830203524 100 162 2.6 13.9 0.00 0.00 0.00 38 1011.1
20260830203051 99 222 4.3 13.9 0.00 0.00 0.00 38 1011.3
20260830202526 99 325 4.3 13.9 0.00 0.00 0.00 38 1011.4
20260830202024 100 169 3.5 13.9 0.00 0.00 0.00 37 1011.6
20260830201549 100 136 1.7 11.3 0.00 0.00 0.00 39 1011.5
20260830201027 100 115 3.5 15.6 0.00 0.00 0.00 39 1011.5
20260830200528 99 0 3.5 15.6 0.00 0.00 0.00 39 1011.7
20260830200047 99 254 2.6 18.2 0.00 0.00 0.00 39 1011.8
20260830195523 98 171 7.0 18.2 0.00 0.00 0.00 39 1011.8
20260830195025 99 177 3.5 13.9 0.00 0.00 0.00 40 1012.0
20260830194559 99 95 3.5 13.0 0.00 0.00 0.00 40 1012.0
20260830194028 99 180 4.3 13.0 0.00 0.00 0.00 41 1012.0
20260830193523 99 150 2.6 8.7 0.00 0.00 0.00 39 1012.1
20260830193049 99 325 2.6 11.3 0.00 0.00 0.00 39 1012.2
20260830192525 99 0 2.6 14.8 0.00 0.00 0.00 41 1012.2
20260830192025 98 174 5.2 14.8 0.00 0.00 0.00 41 1012.2
20260830191547 98 114 4.3 14.8 0.00 0.00 0.00 41 1012.2
20260830191026 97 165 4.3 14.8 0.00 0.00 0.00 42 1012.2
20260830190524 97 166 4.3 15.6 0.00 0.00 0.00 43 1012.3
20260830190041 97 141 6.1 15.6 0.00 0.00 0.00 41 1012.3
20260830185523 97 217 2.6 16.5 0.00 0.00 0.00 43 1012.3
20260830185025 97 205 4.3 16.5 0.00 0.00 0.00 42 1012.4
20260830184549 97 184 2.6 14.8 0.00 0.00 0.00 43 1012.5
20260830184024 96 261 4.3 14.8 0.00 0.00 0.00 43 1012.5
20260830183523 96 180 4.3 14.8 0.00 0.00 0.00 44 1012.5
20260830183044 96 216 3.5 14.8 0.00 0.00 0.00 43 1012.6
20260830182524 96 340 2.6 15.6 0.00 0.00 0.00 44 1012.7
20260830182026 95 148 5.2 15.6 0.00 0.00 0.00 45 1012.7
20260830181549 95 175 6.1 13.0 0.00 0.00 0.00 45 1012.8
20260830181024 95 137 2.6 16.5 0.00 0.00 0.00 46 1012.8
20260830180523 95 217 4.3 16.5 0.00 0.00 0.00 45 1012.7
20260830180049 95 269 3.5 12.2 0.00 0.00 0.00 44 1012.9
20260830175523 94 214 2.6 18.2 0.00 0.00 0.00 46 1012.9
20260830175023 93 192 5.2 18.2 0.00 0.00 0.00 45 1013.1
20260830174603 94 176 3.5 12.2 0.00 0.00 0.00 45 1013.0
20260830174023 94 154 4.3 13.0 0.00 0.00 0.00 46 1013.0
20260830173524 93 352 4.3 13.0 0.00 0.00 0.00 47 1013.1
20260830173049 93 173 4.3 13.0 0.00 0.00 0.00 46 1013.0
20260830172523 93 279 3.5 13.0 0.00 0.00 0.00 47 1013.1
20260830172026 92 97 4.3 15.6 0.00 0.00 0.00 48 1013.1
20260830171600 92 117 4.3 17.4 0.00 0.00 0.00 49 1013.2
20260830171026 91 0 5.2 17.4 0.00 0.00 0.00 49 1013.3
20260830170531 92 205 5.2 12.2 0.00 0.00 0.00 48 1013.4
20260830170048 91 199 3.5 17.4 0.00 0.00 0.00 50 1013.4
20260830165529 91 130 4.3 17.4 0.00 0.00 0.00 50 1013.4
20260830165023 90 153 5.2 17.4 0.00 0.00 0.00 51 1013.4
20260830164542 90 165 5.2 13.9 0.00 0.00 0.00 49 1013.4
20260830164028 90 163 1.7 12.2 0.00 0.00 0.00 51 1013.6
20260830163524 90 191 4.3 14.8 0.00 0.00 0.00 51 1013.5
20260830163055 89 167 5.2 14.8 0.00 0.00 0.00 51 1013.5
20260830162526 88 0 4.3 14.8 0.00 0.00 0.00 53 1013.5
20260830162026 88 161 5.2 14.8 0.00 0.00 0.00 52 1013.7
20260830161604 88 231 3.5 12.2 0.00 0.00 0.00 53 1013.7
20260830161024 88 132 4.3 12.2 0.00 0.00 0.00 52 1013.7
20260830160527 88 243 2.6 13.0 0.00 0.00 0.00 53 1013.6
20260830160044 88 161 3.5 13.0 0.00 0.00 0.00 53 1013.6
20260830155531 87 178 3.5 13.9 0.00 0.00 0.00 53 1013.5
20260830155029 87 182 3.5 13.9 0.00 0.00 0.00 54 1013.5
20260830154551 86 170 4.3 12.2 0.00 0.00 0.00 54 1013.5
20260830154026 86 157 3.5 12.2 0.00 0.00 0.00 54 1013.5
20260830153525 86 159 2.6 13.9 0.00 0.00 0.00 55 1013.5
20260830153048 85 166 4.3 13.9 0.00 0.00 0.00 55 1013.4
20260830152526 85 275 4.3 13.9 0.00 0.00 0.00 55 1013.4
20260830152024 85 174 1.7 13.0 0.00 0.00 0.00 57 1013.4
20260830151555 84 176 3.5 13.0 0.00 0.00 0.00 56 1013.3
20260830151030 84 136 5.2 13.0 0.00 0.00 0.00 56 1013.3
20260830150523 84 205 3.5 11.3 0.00 0.00 0.00 56 1013.3
20260830150048 84 176 3.5 10.4 0.00 0.00 0.00 56 1013.2
20260830145529 83 191 4.3 10.4 0.00 0.00 0.00 57 1013.1
20260830145026 83 173 2.6 12.2 0.00 0.00 0.00 58 1013.1
20260830144543 83 180 2.6 12.2 0.00 0.00 0.00 59 1013.1
20260830144024 82 0 2.6 12.2 0.00 0.00 0.00 58 1013.2
20260830143525 82 158 2.6 11.3 0.00 0.00 0.00 60 1013.2
20260830143048 81 194 2.6 13.0 0.00 0.00 0.00 60 1013.3